Location: Unspecified
(16.5877°N, 0.0000°E)
Time: 07:09:09
(UTC+00:00)

S-56A Canister/Altair - Visible Passes

Search period start: 04 April 2026 00:00
Search period end: 14 April 2026 00:00
Orbit: 632 x 2485 km, 38.9° (Epoch: 28 March)

Date Brightness Start Highest point End Pass type
(mag) Time Alt. Az. Time Alt. Az. Time Alt. Az.
4 Apr 11.2 03:51:12 10° SSE 03:57:31 16° SE 04:04:44 10° E visible
5 Apr 11.4 03:19:07 10° SE 03:22:11 11° SE 03:25:30 10° ESE visible
5 Apr 10.5 05:15:17 10° SSW 05:26:36 54° SE 05:40:54 10° ENE visible
6 Apr 10.5 04:40:36 10° SSW 04:51:03 46° SE 05:04:33 10° ENE visible
7 Apr 10.6 04:06:07 10° SSW 04:15:37 38° SE 04:28:02 10° ENE visible
8 Apr 10.6 03:33:31 16° S 03:40:18 30° SE 03:51:17 10° ENE visible
9 Apr 10.6 03:01:00 19° SSE 03:05:05 24° SE 03:14:16 10° E visible
9 Apr 9.8 04:58:37 10° SW 05:09:29 84° SE 05:24:18 10° NE visible
10 Apr 10.8 02:28:26 17° SE 02:29:58 17° SE 02:36:50 10° E visible
10 Apr 9.7 04:25:43 19° SW 04:33:54 73° SE 04:48:09 10° NE visible
11 Apr 11.1 01:55:49 12° ESE 01:55:49 12° ESE 01:58:24 10° ESE visible
11 Apr 9.6 03:53:05 32° SSW 03:58:25 63° SE 04:11:55 10° ENE visible
12 Apr 9.5 03:20:23 43° S 03:23:05 52° SE 03:35:34 10° ENE visible
12 Apr 9.9 05:18:07 10° WSW 05:28:50 58° NNW 05:43:14 10° NE visible
13 Apr 9.7 02:47:38 42° SE 02:47:53 42° SE 02:59:08 10° ENE visible
13 Apr 9.7 04:44:54 19° WSW 04:53:00 65° NNW 05:07:10 10° NE visible
